Los Alamos, NM

6:37 AM MST on December 06, 2019 (GMT -0700)
Los Alamos

Weather History for KLAM - November, 2019

Change the Weather History Date:

Saturday, November 16, 2019

  Actual Average Record
Temperature  
Mean Temperature 47 °F -  
Max Temperature 58 °F 47 °F 75 °F (1999)
Min Temperature 36 °F 26 °F 8 °F (1955)
Degree Days  
Heating Degree Days 18    
Moisture  
Dew Point 15 °F    
Average Humidity 28    
Maximum Humidity 44    
Minimum Humidity 18    
Precipitation  
Precipitation 0.00 in - - ()
Sea Level Pressure  
Sea Level Pressure 30.19 in    
Wind  
Wind Speed 2 mph ()    
Max Wind Speed 15 mph    
Max Gust Speed 18 mph    
Visibility 10.0 miles    
Events      
Averages and records for this station are not official NWS values.
T = Trace of Precipitation, MM = Missing Value Source: Averaged Metar Reports

Daily Weather History Graph

Daily Weather History Graph

Search for Another Location

Airport or City:

Astronomy

Nov. 16, 2019 Rise Set
Actual Time 6:42 AM MST 4:57 PM MST
Civil Twilight 6:14 AM MST 5:24 PM MST
Nautical Twilight 5:43 AM MST 5:55 PM MST
Astronomical Twilight 5:13 AM MST 6:25 PM MST
Moon 8:36 PM MST (11/16) 10:35 AM MST (11/16)
Length of Visible Light 11h 09m
Length of Day
10h 14m
Waning Gibbous, 82% of the Moon is Illuminated
Nov 16
Waning Gibbous
Nov 19
Last Quarter
Nov 26
New
Dec 3
First Quarter
Dec 11
Full

Hourly Weather History & Observations

Time (MST) Temp. Windchill Dew Point Humidity Pressure Visibility Wind Dir Wind Speed Gust Speed Precip Events Conditions
12:15 AM 45.9 °F - 13.5 °F 27% 30.25 in 10.0 mi Calm Calm - N/A   Clear
12:35 AM 44.8 °F 42.4 °F 13.3 °F 28% 30.24 in 10.0 mi SSW 4.6 mph - N/A   Clear
12:55 AM 44.6 °F 43.1 °F 14.5 °F 30% 30.24 in 10.0 mi South 3.5 mph - N/A   Clear
1:15 AM 44.8 °F 43.3 °F 14.5 °F 30% 30.23 in 10.0 mi South 3.5 mph - N/A   Clear
1:35 AM 44.4 °F - 15.4 °F 31% 30.23 in 10.0 mi Calm Calm - N/A   Clear
1:55 AM 44.1 °F - 15.1 °F 31% 30.23 in 10.0 mi Calm Calm - N/A   Clear
2:15 AM 43.9 °F - 14.7 °F 31% 30.23 in 10.0 mi Calm Calm - N/A   Clear
2:35 AM 43.0 °F 41.3 °F 13.8 °F 31% 30.23 in 10.0 mi South 3.5 mph - N/A   Clear
2:55 AM 42.8 °F - 15.8 °F 34% 30.23 in 10.0 mi Calm Calm - N/A   Clear
3:15 AM 43.3 °F - 16.2 °F 33% 30.23 in 10.0 mi Calm Calm - N/A   Clear
3:35 AM 40.5 °F - 14.9 °F 35% 30.22 in 10.0 mi Calm Calm - N/A   Clear
3:55 AM 40.6 °F - 15.1 °F 35% 30.22 in 10.0 mi Calm Calm - N/A   Clear
4:15 AM 41.0 °F - 15.3 °F 35% 30.22 in 10.0 mi Calm Calm - N/A   Clear
4:35 AM 41.5 °F - 15.6 °F 35% 30.22 in 10.0 mi Calm Calm - N/A   Clear
4:55 AM 39.9 °F - 15.4 °F 37% 30.22 in 10.0 mi Calm Calm - N/A   Clear
5:15 AM 41.0 °F - 15.4 °F 36% 30.22 in 10.0 mi Calm Calm - N/A   Clear
5:35 AM 40.8 °F - 15.3 °F 35% 30.22 in 10.0 mi Calm Calm - N/A   Clear
5:55 AM 40.1 °F - 14.9 °F 36% 30.22 in 10.0 mi Calm Calm - N/A   Clear
6:15 AM 36.9 °F - 15.8 °F 42% 30.22 in 10.0 mi Calm Calm - N/A   Clear
6:35 AM 37.0 °F - 15.6 °F 42% 30.23 in 10.0 mi Calm Calm - N/A   Clear
6:55 AM 36.9 °F - 16.5 °F 44% 30.23 in 10.0 mi Calm Calm - N/A   Clear
7:15 AM 38.3 °F - 14.2 °F 37% 30.23 in 10.0 mi Calm Calm - N/A   Clear
7:35 AM 39.7 °F - 13.5 °F 34% 30.23 in 10.0 mi Calm Calm - N/A   Clear
7:55 AM 41.2 °F - 14.0 °F 33% 30.23 in 10.0 mi Calm Calm - N/A   Clear
8:15 AM 40.3 °F - 14.7 °F 35% 30.23 in 10.0 mi Calm Calm - N/A   Clear
8:35 AM 39.7 °F - 17.2 °F 40% 30.24 in 10.0 mi Calm Calm - N/A   Clear
8:55 AM 42.6 °F - 16.7 °F 35% 30.24 in 10.0 mi Calm Calm - N/A   Clear
9:15 AM 44.2 °F - 16.9 °F 33% 30.24 in 10.0 mi Calm Calm - N/A   Clear
9:55 AM 45.9 °F - 18.3 °F 33% 30.24 in 10.0 mi Calm Calm - N/A   Clear
10:15 AM 46.0 °F - 18.0 °F 33% 30.23 in 10.0 mi Calm Calm - N/A   Clear
10:35 AM 47.1 °F - 18.1 °F 32% 30.23 in 10.0 mi Calm Calm - N/A   Clear
10:55 AM 50.2 °F - 17.2 °F 27% 30.22 in 10.0 mi SE 3.5 mph - N/A   Clear
11:15 AM 51.3 °F - 17.2 °F 26% 30.21 in 10.0 mi Calm Calm - N/A   Clear
11:35 AM 52.7 °F - 16.9 °F 24% 30.19 in 10.0 mi SE 4.6 mph - N/A   Clear
11:55 AM 53.8 °F - 16.9 °F 23% 30.19 in 10.0 mi SSE 3.5 mph - N/A   Clear
12:15 PM 54.5 °F - 16.3 °F 22% 30.17 in 10.0 mi East 4.6 mph - N/A   Clear
12:35 PM 55.2 °F - 16.2 °F 22% 30.16 in 10.0 mi Calm Calm - N/A   Clear
12:55 PM 55.8 °F - 15.4 °F 20% 30.15 in 10.0 mi SSE 3.5 mph - N/A   Clear
1:15 PM 56.1 °F - 15.8 °F 21% 30.15 in 10.0 mi South 4.6 mph - N/A   Clear
1:35 PM 57.6 °F - 15.4 °F 19% 30.14 in 10.0 mi South 4.6 mph - N/A   Clear
1:55 PM 57.6 °F - 15.3 °F 19% 30.13 in 10.0 mi SSE 5.8 mph - N/A   Clear
2:15 PM 58.3 °F - 15.4 °F 19% 30.13 in 10.0 mi South 5.8 mph - N/A   Clear
2:35 PM 58.1 °F - 15.8 °F 19% 30.13 in 10.0 mi SSE 8.1 mph - N/A   Clear
2:55 PM 57.9 °F - 15.8 °F 19% 30.13 in 10.0 mi South 4.6 mph - N/A   Clear
3:15 PM 57.2 °F - 15.8 °F 20% 30.13 in 10.0 mi South 3.5 mph - N/A   Clear
3:35 PM 56.5 °F - 16.3 °F 21% 30.13 in 10.0 mi Calm Calm - N/A   Clear
3:55 PM 56.8 °F - 16.7 °F 21% 30.13 in 10.0 mi SSE 3.5 mph - N/A   Clear
4:15 PM 56.3 °F - 16.5 °F 21% 30.13 in 10.0 mi South 4.6 mph - N/A   Clear
4:35 PM 55.0 °F - 16.7 °F 22% 30.13 in 10.0 mi South 5.8 mph - N/A   Clear
4:55 PM 53.8 °F - 17.4 °F 24% 30.13 in 10.0 mi SSW 4.6 mph - N/A   Clear
5:15 PM 52.2 °F - 17.4 °F 25% 30.14 in 10.0 mi WNW 3.5 mph - N/A   Clear
5:35 PM 54.5 °F - 13.3 °F 20% 30.14 in 10.0 mi West 12.7 mph - N/A   Clear
5:55 PM 54.7 °F - 13.5 °F 20% 30.15 in 10.0 mi WSW 12.7 mph - N/A   Clear
6:15 PM 53.8 °F - 12.9 °F 20% 30.15 in 10.0 mi West 15.0 mph 18.4 mph N/A   Clear
6:35 PM 53.8 °F - 11.1 °F 18% 30.15 in 10.0 mi WNW 10.4 mph 18.4 mph N/A   Clear
6:55 PM 51.8 °F - 11.3 °F 20% 30.17 in 10.0 mi West 9.2 mph - N/A   Clear
7:15 PM 50.4 °F - 11.3 °F 21% 30.17 in 10.0 mi West 10.4 mph - N/A   Clear
7:35 PM 52.0 °F - 9.1 °F 18% 30.17 in 10.0 mi West 9.2 mph - N/A   Clear
7:55 PM 49.8 °F - 9.5 °F 20% 30.19 in 10.0 mi NNW 3.5 mph - N/A   Clear
8:15 PM 50.5 °F - 9.0 °F 19% 30.19 in 10.0 mi Calm Calm - N/A   Clear
8:35 PM 51.1 °F - 10.4 °F 20% 30.19 in 10.0 mi Calm Calm - N/A   Clear
8:55 PM 49.6 °F - 10.8 °F 21% 30.19 in 10.0 mi WNW 3.5 mph - N/A   Clear
9:15 PM 49.5 °F - 14.4 °F 25% 30.19 in 10.0 mi WNW 5.8 mph - N/A   Clear
9:35 PM 47.7 °F - 14.4 °F 26% 30.19 in 10.0 mi WNW 11.5 mph - N/A   Clear
9:55 PM 50.0 °F - 14.9 °F 25% 30.19 in 10.0 mi WNW 10.4 mph - N/A   Clear
10:15 PM 48.9 °F - 15.1 °F 26% 30.20 in 10.0 mi North 6.9 mph - N/A   Clear
10:35 PM 49.5 °F - 15.1 °F 25% 30.20 in 10.0 mi Calm Calm - N/A   Clear
10:55 PM 43.7 °F - 15.4 °F 32% 30.21 in 10.0 mi Calm Calm - N/A   Clear
11:15 PM 45.9 °F 40.0 °F 15.6 °F 30% 30.21 in 10.0 mi NNW 12.7 mph - N/A   Clear
11:35 PM 47.3 °F - 15.1 °F 28% 30.22 in 10.0 mi NW 11.5 mph - N/A   Clear
11:55 PM 48.2 °F - 14.5 °F 26% 30.22 in 10.0 mi WNW 9.2 mph - N/A   Clear